MPEC 2008-J43 : 2008 JQ14

The following Minor Planet Electronic Circular may be linked-to from your own Web pages, but must not otherwise be redistributed electronically.


Read MPEC 2008-J42 Read MPEC 2008-J44


M.P.E.C. 2008-J43                                Issued 2008 May 8, 15:42 UT

     The Minor Planet Electronic Circulars contain information on unusual
         minor planets and routine data on comets.  They are published
   on behalf of Commission 20 of the International Astronomical Union by the
          Minor Planet Center, Smithsonian Astrophysical Observatory,
                          Cambridge, MA 02138, U.S.A.

             Prepared using the Tamkin Foundation Computer Network

                              MPC@CFA.HARVARD.EDU
          URL http://www.cfa.harvard.edu/iau/mpc.html  ISSN 1523-6714

                                   2008 JQ14

Observations:
     K08J14Q* C2008 05 05.16119 10 20 09.85 +11 07 31.6          21.0 V EJ043703
     K08J14Q  C2008 05 05.17045 10 20 11.43 +11 07 43.7          20.2 V EJ043703
     K08J14Q  C2008 05 05.17968 10 20 12.98 +11 07 57.1          20.2 V EJ043703
     K08J14Q  C2008 05 05.18889 10 20 14.42 +11 08 10.5          19.4 V EJ043703
     K08J14Q  C2008 05 06.19054 10 23 08.51 +11 31 53.4          19.2   EJ043704
     K08J14Q  C2008 05 06.20126 10 23 10.21 +11 32 08.8          19.8   EJ043704
     K08J14Q  C2008 05 06.21177 10 23 12.06 +11 32 24.0          19.4   EJ043704
     K08J14Q  C2008 05 06.23282 10 23 15.68 +11 32 53.2          19.1   EJ043704
     K08J14Q  C2008 05 07.20708 10 26 09.02 +11 55 29.3          19.3 V EJ043G96
     K08J14Q  C2008 05 07.21249 10 26 09.96 +11 55 36.9          19.4 V EJ043G96
     K08J14Q  C2008 05 07.21816 10 26 10.96 +11 55 44.2          19.4 V EJ043G96
     K08J14Q  C2008 05 07.22390 10 26 11.97 +11 55 51.9          19.6 V EJ043G96
     K08J14Q  C2008 05 07.90308 10 28 15.15 +12 11 15.1                 EJ043J95
     K08J14Q  C2008 05 07.90488 10 28 15.46 +12 11 17.2                 EJ043J95
     K08J14Q  C2008 05 07.90668 10 28 15.76 +12 11 19.7          19.3 R EJ043J95
     K08J14Q  C2008 05 07.91339 10 28 16.99 +12 11 28.9          19.5 R EJ043J95
     K08J14Q 5C2008 05 08.16748 10 29 03.80 +12 17 17.3          19.2 R EJ043673
     K08J14Q 5C2008 05 08.17407 10 29 04.93 +12 17 26.3                 EJ043673
     K08J14Q 5C2008 05 08.17870 10 29 05.74 +12 17 32.9                 EJ043673
     K08J14Q 5C2008 05 08.18264 10 29 06.41 +12 17 37.8                 EJ043673
     K08J14Q  C2008 05 08.23191 10 29 14.97 +12 18 44.1          19.4 R EJ043651
     K08J14Q  C2008 05 08.23409 10 29 15.38 +12 18 47.6          19.4 R EJ043651
     K08J14Q  C2008 05 08.23516 10 29 15.61 +12 18 48.7          19.7 R EJ043651
     K08J14Q  C2008 05 08.25103 10 29 18.38 +12 19 09.6          20.1 V EJ043G96
     K08J14Q  C2008 05 08.25870 10 29 19.75 +12 19 19.7          20.2 V EJ043G96
     K08J14Q  C2008 05 08.26634 10 29 21.15 +12 19 29.9          20.3 V EJ043G96
     K08J14Q 4C2008 05 08.34047 10 29 34.95 +12 21 13.8          18.9 R EJ043F65
     K08J14Q 4C2008 05 08.35235 10 29 37.07 +12 21 30.0          18.7 R EJ043F65
     K08J14Q 4C2008 05 08.36527 10 29 39.40 +12 21 47.2          18.6 R EJ043F65

Observer details:
651 Grasslands Observatory, Tucson.  Observer J. E. McGaha.  0.62-m f/5.1
    Newtonian reflector + CCD.
673 Table Mountain Observatory, Wrightwood.  Observer J. Young.  0.61-m f/16
    Cassegrain + CCD.
703 Catalina Sky Survey.  Observer R. A. Kowalski.  Measurers E. C. Beshore,
    A. Boattini, G. J. Garradd, A. R. Gibbs, A. D. Grauer, R. E. Hill,
    R. A. Kowalski, S. M. Larson, R. H. McNaught.  0.68-m Schmidt + CCD.
704 Lincoln Laboratory ETS, New Mexico.  Observers M. Bezpalko, D. Torres,
    R. Kracke, G. Spitz, J. Kistler.  Measurers J. Stuart, S. Scruggs.  1.0-m
    f/2.15 reflector + CCD.
F65 Haleakala-Faulkes Telescope North.  Observer J. Bedient.  2.0-m
    Ritchey-Chretien + CCD.
G96 Mt. Lemmon Survey.  Observer E. Beshore.  Measurers E. C. Beshore,
    A. Boattini, G. J. Garradd, A. R. Gibbs, A. D. Grauer, R. E. Hill,
    R. A. Kowalski, S. M. Larson, R. H. McNaught.  1.5-m reflector + CCD.
J95 Great Shefford.  Observer P. Birtwhistle.  0.40-m f/6.0 Schmidt-Cassegrain
    + CCD.

Orbital elements:
2008 JQ14                                                Earth MOID = 0.1980 AU
Epoch 2008 May 14.0 TT = JDT 2454600.5                  MPC
M 356.52373              (2000.0)            P               Q
n   0.24554299     Peri.   22.28863     -0.69780506     +0.70897008
a   2.5257151      Node   203.85648     -0.68937525     -0.70344064
e   0.5291852      Incl.   14.62582     -0.19449901     -0.05032593
P   4.01           H   19.1           G   0.15           U   8
Residuals in seconds of arc
080505 703  0.5-  0.5+    080507 G96  0.1+  0.3-    080508 651  0.1-  0.4-
080505 703  0.3+  0.6-    080507 G96  0.2+  0.4-    080508 651  0.2+  0.2+
080505 703  0.7+  0.4-    080507 J95  0.0   0.2+    080508 651  0.8+  0.1-
080505 703  0.5-  0.2-    080507 J95  0.1-  0.1-    080508 G96  0.3-  0.1-
080506 704  1.0+  0.4-    080507 J95  0.4-  0.0     080508 G96  0.3-  0.2-
080506 704  0.7-  0.0     080507 J95  0.1+  0.2+    080508 G96  0.1+  0.1-
080506 704  0.2+  0.6+    080508 673  1.3+  0.4-    080508 F65  0.2-  0.5-
080506 704  0.6+  0.4+    080508 673  0.8+  0.3-    080508 F65  0.0   0.1-
080507 G96  0.2-  0.0     080508 673  0.7+  0.1+    080508 F65  0.4+  0.0
080507 G96  0.1-  0.2+    080508 673  0.4+  0.3-

Ephemeris:
2008 JQ14                a,e,i = 2.53, 0.53, 15                  q = 1.1891
Date    TT    R. A. (2000) Decl.     Delta      r     Elong.  Phase     V
2008 05 04    10 16.89   +10 39.5    0.439    1.221   108.5    51.6    19.7
2008 05 14    10 47.90   +14 19.2    0.443    1.200   104.4    54.7    19.7
2008 05 24    11 24.35   +16 59.9    0.453    1.190   101.7    56.4    19.8
2008 06 03    12 04.56   +18 30.5    0.469    1.191   100.3    56.9    19.9
2008 06 13    12 46.63   +18 45.9    0.493    1.203    99.9    56.3    20.0
2008 06 23    13 28.57   +17 51.3    0.526    1.225   100.3    54.7    20.1
2008 07 03    14 08.86   +15 58.5    0.568    1.257   101.2    52.5    20.3
2008 07 13    14 46.72   +13 23.9    0.620    1.297   102.1    50.0    20.5
2008 07 23    15 21.88   +10 25.9    0.684    1.344   102.8    47.5    20.7
2008 08 02    15 54.46   +07 19.7    0.759    1.398   103.0    45.0    21.0
2008 08 12    16 24.84   +04 17.7    0.847    1.455   102.6    42.8    21.2
2008 08 22    16 53.36   +01 29.0    0.946    1.516   101.5    40.8    21.5
2008 09 01    17 20.34   -01 01.2    1.057    1.580    99.7    39.0    21.8
2008 09 11    17 46.09   -03 09.6    1.180    1.645    97.3    37.4    22.0

Timothy B. Spahr             (C) Copyright 2008 MPC           M.P.E.C. 2008-J43

Read MPEC 2008-J42 Read MPEC 2008-J44


Our Web policy. Index to the CBAT/MPC/ICQ pages.

MPC

Valid HTML 4.01!